Weather History for KFMY - February, 2011

Change the Weather History Date:

Sunday, February 6, 2011

  Actual Average Record
Temperature  
Mean Temperature 69 °F 66 °F  
Max Temperature 74 °F 76 °F 86 °F (1989)
Min Temperature 64 °F 55 °F 33 °F (1947)
Degree Days  
Heating Degree Days 0 3  
Month to date heating degree days 0 18  
Since 1 July heating degree days 384 219  
Cooling Degree Days 4 3  
Month to date cooling degree days 46 18  
Year to date cooling degree days 97 101  
Growing Degree Days 18 (Base 50)    
Moisture  
Dew Point 63 °F    
Average Humidity 83    
Maximum Humidity 93    
Minimum Humidity 68    
Precipitation  
Precipitation T in 0.07 in 1.30 in (1895)
Month to date precipitation T 0.42  
Year to date precipitation 3.04 2.36  
Sea Level Pressure  
Sea Level Pressure 30.01 in    
Wind  
Wind Speed 5 mph (NNE)    
Max Wind Speed 13 mph    
Max Gust Speed 18 mph    
Visibility 8 miles    
Events Rain    
T = Trace of Precipitation, MM = Missing Value Source: NWS Daily Summary

Daily Weather History Graph

Daily Weather History Graph

Search for Another Location

Airport or City:

Trip Planner

Search our weather history database for the weather conditions in past years. The results will help you decide how hot, cold, wet, or windy it might be!

Date:

Astronomy

Feb. 06, 2011 Rise Set
Actual Time 7:09 AM EST 6:13 PM EST
Civil Twilight 6:45 AM EST 6:37 PM EST
Nautical Twilight 6:18 AM EST 7:05 PM EST
Astronomical Twilight 5:50 AM EST 7:32 PM EST
Moon 8:51 AM EST (2/6) 9:28 PM EST (2/6)
Length of Visible Light 11h 51m
Length of Day
11h 03m
Waxing Crescent, 12% of the Moon is Illuminated
Feb 6
Waxing Crescent
Feb 11
First Quarter
Feb 18
Full
Feb 24
Last Quarter
Mar 4
New

Hourly Weather History & Observations

Time (EST) Temp. Dew Point Humidity Pressure Visibility Wind Dir Wind Speed Gust Speed Precip Events Conditions
12:20 AM 69.8 °F 66.2 °F 88% 29.97 in - North 3.5 mph - N/A   Unknown
12:50 AM 68.0 °F 64.4 °F 88% 29.95 in 10.0 mi ENE 5.8 mph - N/A   Overcast
12:53 AM 68.0 °F 64.9 °F 90% 29.96 in 10.0 mi ENE 4.6 mph - N/A   Overcast
1:53 AM 66.9 °F 63.0 °F 87% 29.97 in 9.0 mi North 5.8 mph - N/A   Overcast
2:53 AM 66.0 °F 63.0 °F 90% 29.96 in 8.0 mi Calm Calm - N/A   Overcast
3:53 AM 66.0 °F 64.0 °F 93% 29.94 in 5.0 mi SE 6.9 mph - N/A   Overcast
4:07 AM 66.2 °F 64.4 °F 94% 29.94 in 4.0 mi Calm Calm - N/A   Overcast
4:50 AM 66.2 °F 64.4 °F 94% 29.95 in 6.0 mi NNW 5.8 mph - N/A   Overcast
4:53 AM 66.9 °F 64.9 °F 93% 29.96 in 6.0 mi NNW 6.9 mph - N/A   Overcast
5:53 AM 66.9 °F 63.0 °F 87% 29.98 in 7.0 mi Calm Calm - N/A   Overcast
6:53 AM 66.9 °F 64.0 °F 90% 29.99 in 7.0 mi NNW 4.6 mph - N/A   Overcast
7:53 AM 66.0 °F 62.1 °F 87% 30.03 in 4.0 mi North 8.1 mph - N/A   Overcast
8:14 AM 64.4 °F 62.6 °F 94% 30.04 in 2.5 mi North 9.2 mph - N/A   Overcast
8:21 AM 64.4 °F 62.6 °F 94% 30.05 in 2.5 mi North 11.5 mph - N/A   Overcast
8:43 AM 64.4 °F 62.6 °F 94% 30.06 in 3.0 mi North 8.1 mph - 0.00 in Rain Light Rain
8:53 AM 64.0 °F 61.0 °F 90% 30.07 in 6.0 mi NNE 8.1 mph - 0.00 in   Overcast
9:53 AM 64.9 °F 61.0 °F 87% 30.08 in 10.0 mi NNE 10.4 mph - N/A   Overcast
10:53 AM 66.9 °F 61.0 °F 81% 30.08 in 10.0 mi NNE 9.2 mph - N/A   Overcast
11:53 AM 68.0 °F 61.0 °F 78% 30.08 in 10.0 mi NE 9.2 mph - N/A   Overcast
12:38 PM 71.6 °F 60.8 °F 69% 30.05 in 10.0 mi Variable 5.8 mph - N/A   Overcast
12:53 PM 71.1 °F 61.0 °F 70% 30.05 in 10.0 mi NE 6.9 mph - N/A   Overcast
1:29 PM 71.6 °F 60.8 °F 69% 30.03 in 10.0 mi NE 8.1 mph - N/A   Overcast
1:53 PM 71.1 °F 61.0 °F 70% 30.03 in 10.0 mi NE 5.8 mph - N/A   Overcast
2:17 PM 69.8 °F 60.8 °F 73% 30.01 in 10.0 mi NNE 6.9 mph - N/A   Overcast
2:53 PM 71.1 °F 61.0 °F 70% 30.01 in 10.0 mi NE 6.9 mph - N/A   Overcast
3:53 PM 73.0 °F 62.1 °F 68% 30.00 in 10.0 mi NNE 4.6 mph - N/A   Overcast
4:53 PM 73.0 °F 63.0 °F 71% 30.01 in 10.0 mi North 6.9 mph - N/A   Overcast
5:53 PM 72.0 °F 63.0 °F 73% 30.02 in 10.0 mi NE 4.6 mph - N/A   Overcast
6:53 PM 71.1 °F 62.1 °F 73% 30.02 in 10.0 mi Calm Calm - N/A   Overcast
7:53 PM 71.1 °F 63.0 °F 75% 30.04 in 10.0 mi Calm Calm - N/A   Overcast
8:53 PM 71.1 °F 63.0 °F 75% 30.04 in 10.0 mi Calm Calm - N/A   Mostly Cloudy
9:53 PM 69.1 °F 62.1 °F 78% 30.05 in 10.0 mi East 3.5 mph - N/A   Partly Cloudy
10:53 PM 66.9 °F 62.1 °F 84% 30.05 in 10.0 mi Calm Calm - N/A   Clear
11:53 PM 64.9 °F 62.1 °F 90% 30.04 in 10.0 mi Calm Calm - N/A   Clear